Flag for India Weather past 2 weeks in Thiruvananthapuram, Kerala, India

Now
86 °F

Broken clouds.


Feels Like: 95 °F
Forecast: 79 / 87 °F
Wind: 6 mph from Northwest

Location: Thiruvananthapuram

Current Time: Dec 18, 2014 at 12:59:32 PM

Latest Report: Dec 18, 2014 at 12:10 PM


Visibility: 3 mi

Pressure: 29.80 "Hg

Humidity: 70%

Dew point: 75 °F

Location of ThiruvananthapuramLocation

Historic Weather in Thiruvananthapuram — Graph

°F

Thiruvananthapuram temperature yesterday

Maximum temperature yesterday: 86 °F (at 12:40 PM)
Minimum temperature yesterday: 77 °F (at 4:40 AM)
Average temperature yesterday: 81 °F

Past Weeks' High & Low Weather Summary

 TemperatureHumidityPressure
High90 °F (Dec 3, 12:10 PM)100% (Dec 10, 10:10 AM)29.92 "Hg (Dec 10, 10:10 AM)
Low73 °F (Dec 8, 6:10 AM)38% (Dec 14, 3:10 PM)29.74 "Hg (Dec 3, 3:10 PM)
Average82 °F81%29.84 "Hg
* Reported Dec 3 10:40 AM — Dec 18 11:10 AM, Thiruvananthapuram, Weather by CustomWeather, © 2014

Note: Actual official high and low records may vary slightly from our data, if they occured in-between our weather recording intervals... More about our weather records

Advertising

Thiruvananthapuram weather history for previous 24 hours

 ConditionsComfort  
Time TempWeatherWind HumidityBarometerVisibility
11:10 AM
Dec 18
84 °FBroken clouds.5 mph70%29.83 "Hg2 mi
10:40 AM84 °FBroken clouds.5 mph70%29.83 "Hg2 mi
10:10 AM84 °FBroken clouds.3 mph74%29.83 "Hg2 mi
9:40 AM84 °FBroken clouds.No wind79%29.86 "Hg2 mi
8:40 AM82 °FBroken clouds.No wind84%29.86 "Hg2 mi
8:10 AM81 °FBroken clouds.3 mph84%29.86 "Hg2 mi
7:40 AM79 °FBroken clouds.3 mph89%29.86 "Hg2 mi
4:10 AM79 °FPassing clouds.No wind89%29.80 "Hg2 mi
3:10 AM81 °FPassing clouds.3 mph84%29.80 "Hg2 mi
1:40 AM81 °FPassing clouds.3 mph84%29.80 "Hg2 mi
1:10 AM81 °FPartly cloudy.3 mph84%29.80 "Hg2 mi
12:40 AM81 °FPartly cloudy.3 mph84%29.80 "Hg2 mi
12:10 AM81 °FPassing clouds.3 mph84%29.80 "Hg2 mi
11:40 PM
Dec 17
81 °FPassing clouds.3 mph84%29.80 "Hg2 mi
10:40 PM81 °FPassing clouds.No wind84%29.80 "Hg2 mi
10:10 PM81 °FPassing clouds.No wind84%29.83 "Hg2 mi
9:40 PM81 °FPassing clouds.No wind84%29.83 "Hg2 mi
8:10 PM82 °FPartly cloudy.No wind79%29.80 "Hg2 mi
6:10 PM82 °FMore clouds than sun.3 mph79%29.77 "Hg3 mi
5:10 PM84 °FMore clouds than sun.No wind74%29.74 "Hg3 mi
4:10 PM86 °FMore clouds than sun.5 mph70%29.74 "Hg3 mi
3:10 PMN/ABroken clouds.5 mphN/A29.77 "Hg3 mi
1:10 PM86 °FBroken clouds.5 mph79%29.83 "Hg2 mi
12:40 PM86 °FBroken clouds.5 mph79%29.80 "Hg2 mi
12:10 PMN/ABroken clouds.5 mphN/A29.83 "Hg2 mi
Weather by CustomWeather, © 2014

See weather overviewHow to use our weather pages